STARLINK-34226

Last updated on Thu Jul 03 2025 00:02:07 GMT+0000 (Coordinated Universal Time)

1 64494U 25133Y 25183.58335648 -.01264308 00000+0 -62237-2 0 9999 2 64494 53.1549 210.7482 0000959 63.3926 323.7466 15.84098490 2564
UTC large
Height (km)
Speed (km/s)
/
Latitude / Longitude
Inclination (degrees)
Orbital Period (minutes)
Azimuth
Elevation
Range (km)
Doppler Factor

Next 0 passes for location: London (51.5072 / 0.1276)

Sorry there are no passes over London.